Temp
-7 -7 -7 -7 -7 -7 -7 -7 -7 -7 -7 -7 -7 -7 -7 -6 -6 -6 -7 -6 -7 -7 -7 -7 -7 -7 -7 -6 -6 -7 -6 -7 -7 -7 -7 -7 -7 -7 -7 -7 -7 -7 -7
-7 -7 -7 -7 -7 -7 -7 -7 -7 -7 -7 -6 -7 -6 -6 -6 -6 -6 -7 -7 -7 -7 -7 -7 -7 -7 -7 -7 -7 -7 -7 -7 -7 -7 -7 -7 -7 -7 -7 -7 -7 -7 -7
-6 -7 -7 -7 -7 -7 -7 -7 -7 -7 -7 -6 -6 -6 -6 -7 -6 -6 -7 -7 -7 -7 -7 -7 -7 -7 -7 -7 -7 -7 -7 -7 -7 -7 -7 -7 -8 -7 -7 -7 -7 -7 -8
-6 -7 -7 -7 -7 -7 -7 -7 -7 -7 -6 -6 -6 -6 -7 -7 -7 -7 -7 -7 -7 -6 -6 -7 -7 -7 -7 -7 -7 -7 -7 -8 -8 -7 -7 -7 -8 -8 -8 -7 -8 -8 -8
-6 -7 -7 -7 -7 -7 -7 -7 -7 -7 -6 -6 -6 -7 -7 -7 -7 -7 -7 -7 -6 -7 -7 -7 -7 -7 -7 -7 -7 -7 -8 -8 -8 -8 -8 -7 -8 -8 -8 -7 -8 -8 -8
-6 -7 -7 -7 -7 -7 -7 -7 -7 -7 -7 -7 -7 -7 -7 -7 -7 -7 -7 -7 -7 -7 -7 -7 -7 -8 -7 -8 -7 -8 -8 -8 -8 -8 -8 -8 -8 -8 -8 -8 -8 -8 -8
-6 -7 -7 -7 -7 -7 -7 -7 -7 -7 -7 -6 -7 -7 -7 -7 -7 -7 -7 -7 -7 -7 -7 -7 -7 -8 -8 -8 -8 -8 -8 -8 -8 -8 -8 -8 -8 -8 -8 -8 -8 -8 -8
-6 -6 -6 -7 -7 -7 -7 -7 -7 -7 -7 -6 -6 -7 -7 -7 -7 -7 -7 -7 -7 -7 -7 -7 -7 -8 -8 -8 -8 -8 -8 -8 -8 -8 -9 -9 -8 -8 -8 -8 -8 -8 -8
-7 -6 -6 -6 -6 -7 -7 -7 -7 -7 -7 -7 -7 -7 -7 -7 -7 -7 -7 -7 -7 -7 -7 -7 -7 -8 -8 -8 -8 -8 -8 -8 -8 -9 -9 -9 -9 -9 -8 -8 -8 -8 -8
-6 -6 -6 -6 -6 -6 -7 -7 -7 -7 -7 -7 -7 -7 -7 -7 -7 -7 -7 -7 -7 -7 -7 -7 -7 -7 -8 -8 -8 -8 -8 -8 -8 -9 -9 -9 -9 -9 -9 -9 -9 -9 -8
-6 -6 -6 -6 -6 -6 -6 -6 -6 -6 -6 -6 -7 -7 -7 -7 -7 -7 -7 -7 -7 -7 -7 -7 -7 -7 -8 -8 -8 -8 -8 -8 -8 -9 -8 -8 -9 -9 -9 -9 -8 -8 -8
-6 -6 -6 -6 -6 -6 -6 -6 -6 -6 -6 -6 -6 -6 -7 -7 -7 -7 -7 -7 -7 -7 -7 -7 -7 -7 -7 -7 -7 -7 -8 -8 -8 -8 -8 -8 -8 -9 -9 -9 -9 -8 -8
-6 -6 -6 -6 -6 -6 -6 -6 -6 -6 -6 -6 -6 -6 -6 -7 -7 -7 -7 -7 -7 -7 -7 -7 -7 -7 -7 -7 -7 -7 -7 -7 -8 -8 -8 -8 -8 -8 -8 -8 -9 -9 -9
-6 -6 -6 -6 -6 -6 -6 -6 -6 -6 -7 -7 -6 -6 -7 -7 -7 -7 -7 -7 -7 -7 -7 -7 -7 -7 -7 -7 -7 -7 -7 -7 -7 -8 -8 -8 -8 -8 -8 -8 -8 -8 -9
-7 -7 -6 -6 -6 -6 -6 -6 -6 -6 -6 -6 -6 -6 -6 -7 -7 -6 -7 -7 -7 -7 -7 -7 -7 -6 -7 -7 -7 -7 -7 -7 -7 -7 -7 -8 -8 -8 -8 -8 -8 -8 -8
-7 -7 -7 -6 -7 -6 -6 -6 -6 -6 -6 -6 -6 -6 -6 -6 -7 -7 -7 -7 -7 -7 -7 -7 -6 -7 -6 -7 -7 -7 -7 -7 -7 -7 -7 -7 -8 -8 -8 -8 -8 -8 -8
-7 -7 -7 -7 -6 -6 -7 -6 -6 -6 -6 -6 -6 -6 -7 -6 -6 -7 -7 -7 -7 -6 -6 -7 -7 -7 -6 -6 -7 -7 -7 -7 -7 -7 -7 -7 -7 -7 -7 -8 -8 -8 -8
-7 -7 -7 -7 -7 -7 -7 -7 -6 -6 -6 -6 -6 -6 -6 -6 -6 -6 -7 -7 -7 -6 -6 -6 -6 -7 -7 -7 -7 -7 -7 -7 -6 -7 -7 -7 -7 -7 -7 -7 -8 -8 -9
-6 -6 -7 -7 -7 -7 -7 -7 -7 -6 -6 -7 -6 -6 -6 -6 -7 -6 -6 -7 -7 -6 -6 -6 -6 -6 -7 -6 -7 -6 -7 -7 -7 -7 -6 -7 -7 -7 -7 -7 -7 -7 -8
-6 -6 -6 -7 -7 -7 -7 -7 -7 -7 -7 -7 -7 -7 -6 -6 -7 -7 -7 -7 -7 -7 -7 -7 -6 -6 -6 -7 -7 -6 -6 -7 -7 -7 -7 -7 -6 -6 -6 -7 -7 -7 -8
-6 -6 -6 -7 -7 -7 -6 -7 -7 -7 -7 -7 -7 -7 -6 -7 -7 -7 -7 -7 -7 -6 -6 -6 -7 -6 -6 -6 -6 -6 -6 -6 -6 -6 -6 -7 -6 -6 -7 -7 -6 -7 -7
-7 -7 -6 -6 -6 -7 -7 -6 -6 -7 -7 -7 -7 -7 -7 -7 -7 -7 -7 -7 -7 -6 -6 -6 -6 -7 -6 -6 -6 -6 -6 -6 -6 -6 -6 -6 -6 -6 -6 -6 -7 -7 -7
-7 -7 -7 -6 -6 -6 -7 -7 -6 -7 -7 -7 -7 -7 -7 -7 -7 -7 -7 -7 -7 -7 -7 -7 -7 -7 -7 -6 -6 -6 -6 -6 -6 -6 -6 -6 -6 -6 -6 -6 -6 -6 -6
-8 -7 -7 -7 -6 -6 -6 -7 -6 -6 -7 -7 -7 -8 -8 -7 -7 -7 -7 -7 -7 -7 -7 -7 -7 -7 -7 -7 -6 -6 -6 -7 -6 -6 -6 -6 -6 -6 -6 -6 -6 -6 -6
-8 -8 -7 -7 -7 -6 -6 -7 -7 -7 -7 -7 -8 -8 -7 -8 -8 -8 -7 -7 -7 -7 -7 -7 -7 -7 -7 -7 -6 -7 -7 -7 -7 -6 -7 -6 -6 -6 -6 -6 -6 -6 -6
-8 -8 -7 -8 -7 -7 -7 -7 -7 -7 -7 -7 -7 -7 -8 -8 -8 -8 -7 -7 -7 -7 -7 -7 -7 -7 -7 -7 -7 -7 -7 -6 -7 -7 -7 -6 -6 -6 -6 -6 -6 -6 -6
Height
5909 5910 5910 5910 5911 5911 5911 5912 5913 5913 5913 5913 5914 5915 5916 5918 5919 5921 5922 5923 5924 5926 5927 5928 5930 5931 5932 5932 5932 5932 5933 5934 5934 5935 5936 5936 5937 5938 5938 5938 5938 5938 5938
5910 5912 5913 5913 5914 5915 5914 5914 5914 5914 5913 5914 5916 5917 5919 5920 5922 5922 5924 5926 5928 5929 5931 5931 5932 5933 5935 5935 5935 5936 5936 5937 5937 5938 5938 5939 5939 5940 5941 5941 5941 5940 5940
5912 5913 5914 5915 5916 5917 5917 5916 5914 5913 5913 5915 5916 5919 5921 5923 5924 5925 5926 5929 5932 5934 5934 5934 5936 5937 5937 5938 5939 5939 5939 5940 5941 5941 5941 5941 5942 5942 5943 5943 5943 5943 5943
5915 5916 5917 5918 5918 5919 5918 5917 5915 5913 5912 5915 5918 5921 5923 5925 5927 5929 5930 5933 5936 5937 5937 5937 5938 5939 5939 5939 5940 5940 5941 5942 5943 5944 5944 5944 5944 5944 5945 5945 5945 5945 5945
5919 5919 5920 5921 5921 5922 5920 5919 5917 5916 5916 5917 5920 5923 5925 5927 5929 5931 5935 5937 5938 5939 5939 5939 5940 5941 5941 5941 5941 5941 5942 5944 5944 5945 5945 5946 5945 5946 5946 5947 5947 5948 5947
5922 5923 5923 5923 5925 5925 5923 5922 5921 5920 5920 5922 5924 5925 5927 5929 5931 5935 5937 5939 5941 5941 5941 5942 5942 5942 5940 5942 5943 5943 5944 5945 5945 5945 5946 5946 5947 5947 5948 5948 5949 5949 5949
5925 5926 5926 5926 5927 5927 5926 5925 5924 5925 5925 5925 5926 5929 5931 5934 5935 5938 5940 5941 5942 5943 5943 5943 5943 5943 5942 5943 5944 5945 5947 5946 5946 5947 5947 5947 5947 5948 5949 5950 5950 5950 5951
5928 5928 5929 5929 5929 5929 5929 5927 5927 5928 5929 5929 5932 5933 5935 5936 5938 5940 5942 5943 5944 5945 5946 5945 5946 5945 5945 5946 5946 5947 5947 5947 5947 5947 5947 5948 5948 5949 5950 5950 5951 5952 5952
5930 5930 5930 5930 5930 5931 5931 5931 5930 5931 5932 5933 5935 5936 5938 5939 5941 5942 5944 5945 5946 5947 5946 5947 5948 5947 5946 5947 5947 5948 5948 5947 5947 5948 5948 5948 5949 5950 5950 5951 5952 5953 5954
5931 5932 5932 5931 5933 5934 5933 5933 5933 5934 5936 5937 5938 5940 5941 5942 5943 5944 5945 5947 5947 5947 5947 5948 5947 5948 5948 5947 5948 5948 5948 5948 5948 5947 5948 5949 5949 5950 5951 5952 5952 5954 5954
5933 5934 5934 5935 5934 5936 5936 5936 5936 5937 5939 5940 5941 5943 5944 5944 5945 5946 5946 5947 5948 5947 5947 5948 5948 5949 5948 5947 5947 5948 5948 5949 5949 5949 5949 5949 5950 5950 5950 5951 5952 5954 5954
5935 5936 5936 5937 5938 5938 5938 5938 5938 5940 5941 5942 5943 5945 5945 5945 5947 5947 5947 5948 5947 5948 5948 5948 5948 5949 5949 5949 5948 5949 5948 5949 5949 5949 5948 5949 5950 5950 5951 5950 5951 5953 5954
5937 5938 5938 5938 5939 5940 5940 5940 5940 5942 5942 5943 5945 5946 5946 5947 5948 5948 5949 5949 5948 5949 5949 5949 5949 5950 5950 5950 5949 5948 5948 5948 5949 5949 5948 5949 5949 5950 5951 5952 5952 5953 5954
5938 5939 5940 5940 5941 5941 5941 5942 5943 5944 5944 5946 5947 5948 5949 5949 5949 5950 5950 5951 5950 5951 5951 5951 5950 5950 5950 5949 5948 5947 5948 5948 5947 5948 5948 5948 5948 5948 5950 5951 5951 5952 5953
5940 5940 5941 5942 5942 5943 5943 5944 5944 5946 5946 5947 5948 5949 5950 5950 5951 5952 5952 5952 5952 5952 5952 5952 5952 5951 5950 5950 5949 5949 5948 5948 5948 5947 5947 5947 5947 5948 5948 5949 5950 5952 5952
5940 5941 5942 5942 5943 5944 5944 5945 5945 5946 5948 5948 5950 5950 5951 5951 5952 5954 5954 5954 5953 5952 5953 5953 5953 5953 5952 5950 5950 5950 5950 5949 5949 5948 5948 5946 5947 5946 5946 5945 5948 5948 5950
5941 5941 5942 5943 5944 5945 5945 5946 5946 5947 5948 5949 5950 5951 5952 5953 5954 5954 5955 5955 5955 5953 5953 5953 5953 5952 5953 5951 5951 5951 5950 5950 5949 5948 5948 5947 5946 5946 5946 5946 5946 5947 5948
5941 5941 5942 5943 5944 5945 5946 5946 5948 5949 5948 5949 5950 5952 5952 5954 5954 5955 5956 5956 5955 5955 5954 5953 5953 5953 5952 5953 5953 5951 5951 5950 5949 5949 5947 5946 5946 5944 5944 5945 5944 5945 5946
5942 5942 5943 5943 5944 5944 5946 5947 5948 5949 5949 5950 5951 5952 5952 5953 5954 5955 5956 5956 5956 5956 5955 5954 5953 5953 5953 5953 5954 5953 5952 5951 5950 5949 5947 5947 5944 5942 5943 5943 5943 5943 5942
5946 5944 5943 5943 5944 5944 5945 5947 5948 5949 5950 5950 5951 5952 5952 5952 5953 5954 5955 5956 5956 5956 5955 5954 5953 5953 5953 5953 5953 5953 5952 5951 5950 5949 5948 5947 5945 5943 5942 5942 5941 5940 5941
5947 5946 5944 5944 5943 5943 5944 5945 5947 5948 5949 5951 5951 5951 5952 5951 5952 5952 5953 5955 5956 5956 5955 5954 5953 5953 5952 5952 5952 5952 5952 5950 5949 5948 5948 5946 5945 5943 5942 5941 5940 5939 5938
5946 5947 5946 5945 5943 5942 5942 5943 5945 5946 5948 5948 5950 5951 5951 5951 5952 5951 5952 5952 5954 5955 5954 5953 5952 5952 5952 5951 5951 5950 5950 5950 5948 5947 5946 5946 5941 5942 5941 5940 5939 5938 5937
5947 5946 5945 5945 5944 5943 5941 5940 5941 5944 5946 5947 5949 5951 5951 5951 5952 5951 5951 5951 5951 5953 5953 5952 5951 5951 5950 5951 5951 5950 5949 5949 5947 5946 5946 5944 5942 5939 5940 5940 5939 5937 5936
5947 5946 5944 5944 5943 5942 5941 5939 5938 5942 5945 5947 5947 5948 5949 5950 5950 5951 5951 5951 5950 5950 5950 5950 5950 5951 5951 5950 5949 5947 5948 5947 5946 5946 5944 5943 5942 5940 5938 5939 5937 5937 5936
5947 5945 5944 5943 5944 5942 5941 5939 5938 5940 5943 5945 5945 5946 5947 5948 5949 5948 5949 5949 5949 5949 5949 5949 5949 5950 5950 5949 5948 5946 5947 5946 5945 5944 5944 5943 5941 5940 5939 5938 5937 5935 5934
5947 5945 5944 5943 5941 5941 5940 5938 5938 5937 5939 5941 5943 5943 5943 5945 5946 5946 5947 5948 5948 5948 5947 5947 5947 5947 5947 5947 5946 5946 5945 5944 5943 5942 5941 5940 5939 5937 5937 5936 5935 5933 5933
Wind_Speed
13 13 15 17 18 18 17 16 16 15 14 15 15 16 17 19 20 19 19 21 21 20 20 20 20 19 17 16 17 17 16 15 15 16 14 14 13 13 12 13 13 14 14
15 14 15 17 16 16 16 14 13 12 12 12 16 17 17 19 19 20 19 21 18 19 19 19 16 15 15 15 16 15 15 14 14 14 13 13 12 12 12 12 12 13 13
15 14 15 16 16 16 15 14 12 8 8 13 19 19 17 18 21 22 23 21 18 18 17 15 15 14 14 15 14 14 14 13 12 12 12 14 11 12 12 11 11 12 12
15 15 15 15 14 13 13 13 12 14 20 23 23 20 19 19 21 22 22 20 19 16 15 14 14 13 13 13 14 14 12 12 11 10 10 11 12 11 11 11 12 12 11
17 16 16 16 16 17 19 16 20 26 29 30 26 22 20 19 22 22 21 18 17 16 16 15 14 12 10 13 14 13 12 11 11 10 11 11 12 11 10 11 12 12 12
19 19 17 18 19 18 18 20 27 29 28 27 27 27 23 22 22 20 20 18 17 16 16 13 12 11 12 14 13 12 11 11 11 10 10 9 10 11 10 11 12 12 11
19 20 20 20 20 20 21 22 24 26 28 29 27 27 24 22 20 19 17 17 16 14 14 12 13 14 13 13 12 12 11 11 11 10 10 9 11 11 10 10 10 10 11
16 20 21 21 21 20 22 22 23 23 26 28 27 25 22 21 19 17 16 15 14 12 11 11 11 11 11 12 8 10 10 7 9 9 8 7 10 10 9 9 9 8 9
14 16 19 20 21 21 22 23 24 23 24 25 23 21 20 18 16 16 15 13 11 11 11 10 10 10 12 12 13 10 8 8 7 7 9 11 8 8 8 8 6 6 6
13 15 17 19 20 21 22 22 24 24 22 21 19 18 18 16 16 15 14 11 10 11 10 9 10 10 10 13 11 9 8 6 5 7 10 10 10 9 7 6 6 6 5
13 14 16 16 19 19 21 22 22 22 20 20 18 18 17 15 15 14 13 11 11 12 12 10 9 9 9 11 10 8 8 6 5 4 7 11 11 9 8 7 4 4 5
12 13 15 14 15 17 19 19 21 20 19 18 17 16 16 15 14 14 13 12 10 10 10 10 10 10 8 7 6 6 6 6 3 3 8 10 8 9 8 8 7 5 4
11 11 13 14 13 15 16 17 17 18 18 17 16 14 14 14 14 14 12 12 10 9 10 10 11 8 6 4 3 5 6 5 5 3 4 5 5 7 8 8 7 4 5
10 9 11 12 12 14 14 15 16 17 17 16 13 15 14 12 10 13 13 14 15 13 11 11 10 8 6 4 4 2 5 4 2 3 1 3 5 6 6 7 7 7 8
8 9 9 10 12 12 12 12 15 16 17 15 15 14 13 11 10 13 11 10 13 13 14 13 11 13 10 6 2 2 3 1 1 3 5 6 4 7 8 9 8 7 8
6 6 7 8 11 12 12 11 15 16 13 12 12 11 13 12 10 10 9 9 9 10 12 12 10 9 9 6 4 6 2 6 8 7 5 7 9 6 9 11 10 9 9
6 6 6 7 9 11 11 11 13 16 14 10 9 9 9 10 8 9 8 7 7 9 10 9 9 8 11 9 9 6 1 5 6 7 10 9 8 7 13 13 12 11 11
6 6 5 6 6 8 9 10 12 13 15 14 11 9 8 9 8 6 6 6 6 5 6 7 8 8 10 10 9 12 6 5 6 7 6 5 9 10 10 9 12 12 13
9 5 5 4 5 6 7 8 10 12 13 13 12 11 9 9 9 6 4 4 3 3 4 4 6 7 7 8 9 9 7 7 8 9 8 10 7 6 10 11 15 16 17
12 9 5 4 4 5 5 6 6 7 8 11 12 13 11 9 9 7 5 4 3 2 1 1 2 4 4 11 10 1 4 5 6 6 7 8 11 13 10 11 8 13 20
12 13 11 5 1 2 6 6 8 8 7 8 10 12 12 10 8 6 6 5 5 2 2 1 2 1 4 6 10 6 6 7 5 7 8 4 10 9 8 7 9 14 17
10 12 13 10 5 3 4 4 8 10 10 10 10 10 9 9 9 7 6 5 4 4 3 4 3 4 3 1 9 7 6 8 8 7 7 9 9 11 11 10 7 13 8
11 9 10 10 9 5 5 7 7 11 11 9 8 7 9 9 9 8 7 7 6 6 5 3 3 3 2 2 6 3 5 8 11 4 8 10 15 11 7 10 8 8 10
15 11 7 8 10 9 9 8 2 7 8 6 8 10 11 11 10 10 10 9 9 7 6 5 5 5 6 3 4 3 3 8 8 5 6 10 9 11 5 11 6 13 10
18 13 8 7 9 11 10 9 4 2 5 6 7 9 12 13 14 14 13 12 11 9 9 7 7 8 7 7 6 5 6 8 8 7 5 10 11 13 12 9 6 8 6
16 18 16 10 9 8 7 6 3 4 6 7 6 6 8 11 14 16 16 14 12 12 11 11 10 9 9 9 8 7 8 8 10 9 7 9 9 10 17 12 8 9 6
Wind_Direction
99 92 90 89 93 94 95 99 100 99 100 102 103 97 95 95 99 102 100 98 95 96 95 91 89 87 88 92 96 98 102 108 109 110 115 111 105 101 96 96 96 95 90
106 98 94 91 94 97 97 97 98 99 100 104 111 108 105 96 95 97 105 107 106 96 89 89 92 96 96 95 95 97 102 105 109 112 112 101 98 102 96 98 99 95 99
105 102 95 97 94 96 95 95 90 82 104 118 122 118 113 109 101 102 109 108 105 93 90 91 94 96 96 95 97 103 104 102 105 110 111 111 110 104 105 101 100 101 102
110 111 108 102 98 94 91 96 70 89 111 117 120 122 122 114 112 108 110 103 95 96 96 94 94 91 93 90 93 92 95 102 104 105 110 112 112 106 106 106 101 101 99
113 116 115 113 106 104 97 96 85 96 105 114 117 112 112 111 112 109 101 102 109 106 97 95 93 85 96 88 90 91 90 97 104 109 110 111 109 110 108 102 98 96 92
114 117 121 116 113 110 109 95 86 99 103 107 104 105 106 110 111 106 110 111 105 103 103 104 100 73 92 113 96 88 94 101 109 108 110 114 114 110 106 101 98 96 88
120 117 119 119 116 108 108 108 98 98 100 107 107 106 110 114 112 109 110 107 106 104 109 111 101 92 104 100 106 108 99 105 114 117 113 109 121 117 113 108 102 97 92
121 119 119 118 115 112 110 111 109 104 104 105 109 113 114 113 111 112 111 107 104 110 112 110 106 99 107 109 124 117 119 110 124 130 123 109 124 121 120 118 110 103 102
125 121 120 118 118 116 114 113 111 107 111 112 112 116 113 113 113 107 102 100 102 108 106 107 106 108 115 130 119 114 110 123 124 121 140 129 132 131 138 135 124 111 111
130 126 122 120 118 118 117 114 112 112 114 116 116 115 116 115 110 106 104 102 101 99 106 110 116 126 127 123 117 117 117 105 110 111 148 145 143 143 149 149 145 132 128
131 134 130 125 122 121 121 120 118 118 118 117 118 118 117 115 114 114 111 110 101 104 107 116 127 129 129 119 113 103 119 108 86 82 140 159 152 155 156 155 166 162 153
130 138 138 135 131 126 126 127 127 125 124 124 125 125 124 121 118 116 113 113 110 103 103 105 136 133 119 113 106 101 111 125 115 63 148 155 162 165 167 162 164 171 183
136 137 140 142 139 137 132 132 132 131 131 130 124 124 125 126 123 120 118 108 98 94 89 86 120 116 86 93 122 133 105 90 112 120 149 164 176 189 182 179 170 175 182
144 152 146 144 147 144 144 143 142 135 133 131 128 127 121 128 128 125 115 109 106 101 84 88 81 57 60 71 33 90 90 105 123 172 190 197 213 195 212 204 199 191 197
131 145 164 159 152 150 149 146 151 141 140 136 133 130 119 117 110 115 116 110 106 97 84 82 93 55 54 84 52 39 61 18 202 239 227 221 212 233 218 216 214 227 224
155 148 140 166 172 160 159 158 157 155 153 147 142 139 128 121 117 118 111 101 92 89 78 81 75 50 55 46 47 8 63 46 323 334 275 246 245 234 235 228 221 208 238
160 166 160 141 169 172 163 175 168 164 158 161 156 147 138 125 124 127 120 107 93 87 83 70 54 38 46 69 60 13 338 33 10 14 349 250 257 258 265 241 228 235 221
158 171 167 159 155 160 171 174 189 182 170 169 177 180 160 144 136 136 135 125 114 104 84 64 52 39 35 53 357 10 30 36 14 360 351 5 252 240 298 283 244 236 238
99 147 173 171 174 182 162 175 186 189 189 184 185 191 185 169 153 161 166 155 150 99 74 43 42 30 35 27 35 5 352 5 28 19 18 4 3 306 259 277 251 257 247
55 71 135 174 198 198 200 189 180 198 199 203 207 206 202 194 175 170 191 215 225 250 360 360 29 34 18 28 5 44 294 309 334 10 352 9 352 322 347 312 280 266 252
49 49 59 79 89 212 207 217 206 193 194 205 223 223 212 205 200 212 214 222 254 255 291 279 281 323 12 19 322 322 329 326 339 324 327 349 330 3 12 11 324 295 269
38 38 35 46 53 22 329 270 225 213 205 199 209 218 219 225 222 226 247 250 264 281 278 277 280 248 342 285 326 307 311 338 337 333 326 325 308 304 316 331 333 344 275
32 15 20 24 39 13 339 324 280 206 218 221 225 232 231 234 243 247 250 258 258 260 245 267 266 253 261 281 318 297 314 295 323 278 309 312 323 301 335 359 334 286 318
33 20 2 10 17 25 5 9 20 185 214 235 227 232 240 244 245 249 253 255 258 253 246 250 246 248 251 252 264 180 318 345 360 344 334 350 343 344 310 343 338 329 325
31 15 359 358 7 11 10 10 360 216 195 221 237 246 253 255 255 251 252 253 256 252 243 252 246 249 258 260 268 310 321 322 322 317 321 352 331 331 329 327 352 316 329
27 22 11 3 354 348 357 356 335 262 236 245 256 237 236 245 245 245 249 256 251 251 251 258 255 253 256 256 271 290 299 303 306 294 296 299 283 309 306 293 305 325 328